KF4PPJ Weather Reports


time (UTC)temp
C
wind
direction
speed
KPH
gust
KPH
rain 1hr
cm
rain 24hr
cm
rain mn
cm
humidity
%
barometer
mb
20260505163456 13 198 3.2 4.8 0.00 0.00 0.00 82 1019.1
20260505162956 13 174 1.6 3.2 0.00 0.00 0.00 82 1019.0
20260505162450 13 171 1.6 3.2 0.00 0.00 0.00 82 1019.0
20260505161947 13 173 1.6 1.6 0.00 0.00 0.00 82 1018.9
20260505161444 13 165 3.2 3.2 0.00 0.00 0.00 82 1018.8
20260505160942 13 186 1.6 3.2 0.00 0.00 0.00 82 1018.8
20260505160440 13 185 1.6 1.6 0.00 0.00 0.00 83 1018.5
20260505152916 12 177 1.6 1.6 0.00 0.00 0.00 84 1018.8
20260505152413 12 180 1.6 3.2 0.00 0.00 0.00 84 1018.7
20260505151907 12 161 1.6 4.8 0.00 0.00 0.00 84 1018.8
20260505151404 12 161 0.0 1.6 0.00 0.00 0.00 84 1018.7
20260505150902 12 195 3.2 4.8 0.00 0.00 0.00 84 1018.7
20260505150359 12 196 4.8 9.7 0.00 0.00 0.00 84 1018.7
20260505140323 12 188 3.2 3.2 0.00 0.00 0.00 85 1017.8
20260505130246 12 160 1.6 1.6 0.00 0.00 0.00 85 1017.4
20260505124737 12 191 4.8 4.8 0.00 0.00 0.00 85 1017.3
20260505124233 12 165 3.2 4.8 0.00 0.00 0.00 85 1017.4
20260505123728 12 161 1.6 9.7 0.00 0.00 0.00 85 1017.3
20260505123226 12 166 1.6 4.8 0.00 0.00 0.00 85 1017.3
20260505122722 12 193 3.2 4.8 0.00 0.00 0.00 86 1017.3
20260505122220 12 163 3.2 4.8 0.00 0.00 0.00 86 1017.2
20260505121716 12 203 1.6 8.0 0.00 0.00 0.00 86 1017.2
20260505121213 12 162 4.8 8.0 0.00 0.00 0.00 86 1017.0
20260505120709 12 198 3.2 3.2 0.00 0.00 0.00 86 1017.1
20260505120205 12 170 4.8 8.0 0.00 0.00 0.00 86 1017.2
20260505115658 12 175 1.6 3.2 0.00 0.00 0.00 86 1017.1
20260505115156 12 190 1.6 9.7 0.00 0.00 0.00 86 1017.0
20260505114654 12 203 4.8 4.8 0.00 0.00 0.00 86 1017.2
20260505114149 12 210 6.4 8.0 0.00 0.00 0.00 86 1017.1
20260505113646 12 151 1.6 4.8 0.00 0.00 0.00 86 1017.0
20260505113143 12 184 3.2 4.8 0.00 0.00 0.00 86 1017.0
20260505112639 12 131 4.8 9.7 0.00 0.00 0.00 86 1017.1
20260505112138 12 157 3.2 8.0 0.00 0.00 0.00 86 1016.9
20260505111637 12 175 3.2 3.2 0.00 0.00 0.00 86 1017.2
20260505111133 12 192 1.6 4.8 0.00 0.00 0.00 86 1017.0
20260505110629 12 129 8.0 11.3 0.00 0.00 0.00 86 1016.9
20260505110127 12 203 3.2 8.0 0.00 0.00 0.00 86 1016.8
20260505102102 12 202 8.0 9.7 0.00 0.00 0.00 86 1016.7
20260505101601 12 167 6.4 9.7 0.00 0.00 0.00 86 1016.7
20260505101057 12 149 6.4 12.9 0.00 0.00 0.00 86 1016.4
20260505100553 12 183 3.2 9.7 0.00 0.00 0.00 87 1016.5
20260505100050 12 218 8.0 9.7 0.00 0.00 0.00 87 1016.4
20260505095546 12 206 4.8 9.7 0.00 0.00 0.00 87 1016.4
20260505095043 12 174 4.8 11.3 0.00 0.00 0.00 87 1016.3
20260505094539 12 179 4.8 11.3 0.00 0.00 0.00 87 1016.5
20260505094036 12 181 4.8 12.9 0.00 0.00 0.00 86 1016.5
20260505093532 12 221 8.0 12.9 0.00 0.00 0.00 86 1016.3
20260505093030 12 169 6.4 14.5 0.00 0.00 0.00 86 1016.3
20260505092527 12 238 8.0 11.3 0.00 0.00 0.00 87 1016.3
20260505092025 12 151 4.8 11.3 0.00 0.00 0.00 87 1016.5
20260505091522 12 209 8.0 11.3 0.00 0.00 0.00 87 1016.3
20260505091020 12 185 8.0 14.5 0.00 0.00 0.00 87 1016.2
20260505090518 12 193 4.8 8.0 0.00 0.00 0.00 87 1016.3
20260505090015 12 212 4.8 14.5 0.00 0.00 0.00 87 1016.1
20260505085513 12 220 9.7 14.5 0.00 0.00 0.00 87 1016.0
20260505085011 12 171 4.8 8.0 0.00 0.00 0.00 87 1016.1
20260505084509 12 210 4.8 8.0 0.00 0.00 0.00 87 1015.9
20260505084007 12 197 4.8 9.7 0.00 0.00 0.00 87 1016.2
20260505083504 12 215 4.8 11.3 0.00 0.00 0.00 86 1016.1
20260505083000 12 201 6.4 9.7 0.00 0.00 0.00 86 1016.0
20260505082455 12 182 4.8 12.9 0.00 0.00 0.00 87 1016.0
20260505081953 12 197 4.8 9.7 0.00 0.00 0.00 87 1016.0
20260505081450 12 196 3.2 9.7 0.00 0.00 0.00 87 1016.0
20260505080946 12 168 3.2 8.0 0.00 0.00 0.00 87 1016.0
20260505080442 12 196 8.0 11.3 0.00 0.00 0.00 87 1015.6
20260505075938 12 185 1.6 9.7 0.00 0.00 0.00 87 1015.8
20260505075435 12 172 1.6 4.8 0.00 0.00 0.00 87 1015.8
20260505074933 12 149 1.6 3.2 0.00 0.00 0.00 87 1015.8
20260505074430 12 172 1.6 3.2 0.00 0.00 0.00 87 1015.8
20260505073926 12 184 3.2 4.8 0.00 0.00 0.00 86 1015.6
20260505073424 12 210 3.2 3.2 0.00 0.00 0.00 86 1015.6
20260505072921 12 209 4.8 4.8 0.00 0.00 0.00 86 1015.6
20260505072417 12 144 1.6 3.2 0.00 0.00 0.00 86 1015.7
20260505071914 12 188 4.8 8.0 0.00 0.00 0.00 86 1015.7
20260505071410 12 221 4.8 8.0 0.00 0.00 0.00 86 1015.5
20260505070908 12 191 3.2 8.0 0.00 0.00 0.00 86 1015.5
20260505070404 12 176 1.6 4.8 0.00 0.00 0.00 86 1015.3
20260505065900 12 181 3.2 4.8 0.00 0.00 0.00 86 1015.2
20260505065357 12 228 4.8 4.8 0.00 0.00 0.00 86 1015.1
20260505064854 12 169 4.8 8.0 0.00 0.00 0.00 86 1015.1
20260505064351 12 219 4.8 9.7 0.00 0.00 0.00 86 1015.2
20260505063849 12 154 4.8 8.0 0.00 0.00 0.00 86 1015.3
20260505063344 12 162 3.2 4.8 0.00 0.00 0.00 86 1015.3
20260505062841 12 161 4.8 8.0 0.00 0.00 0.00 86 1015.2
20260505062339 12 199 3.2 3.2 0.00 0.00 0.00 86 1015.0
20260505061835 12 157 4.8 11.3 0.00 0.00 0.00 86 1015.1
20260505061334 12 150 4.8 8.0 0.00 0.00 0.00 86 1015.0
20260505060831 12 202 4.8 8.0 0.00 0.00 0.00 85 1014.7
20260505060327 13 145 3.2 9.7 0.00 0.00 0.00 85 1014.8
20260505055823 13 212 8.0 9.7 0.00 0.00 0.00 85 1014.8
20260505055319 13 177 3.2 12.9 0.00 0.00 0.00 85 1014.8
20260505054817 13 212 6.4 9.7 0.00 0.00 0.00 84 1014.8
20260505054314 13 198 6.4 12.9 0.00 0.00 0.00 84 1014.8
20260505053813 13 148 4.8 4.8 0.00 0.00 0.00 84 1014.6
20260505053309 13 188 4.8 8.0 0.00 0.00 0.00 84 1014.7
20260505052806 13 150 3.2 9.7 0.00 0.00 0.00 84 1014.6
20260505052304 13 161 3.2 8.0 0.00 0.00 0.00 83 1014.7
20260505051800 13 148 3.2 8.0 0.00 0.00 0.00 83 1014.5
20260505051258 13 213 4.8 8.0 0.00 0.00 0.00 83 1014.6
20260505050755 13 189 4.8 8.0 0.00 0.00 0.00 83 1014.3
20260505050254 13 199 4.8 9.7 0.00 0.00 0.00 82 1014.3
20260505041724 15 166 4.8 11.3 0.00 0.00 0.00 77 1013.8
20260505041221 15 182 6.4 9.7 0.00 0.00 0.00 75 1013.7
20260505040718 16 124 4.8 11.3 0.00 0.00 0.00 74 1013.7
20260505040215 16 198 4.8 11.3 0.00 0.00 0.00 74 1013.5
20260505035712 16 204 3.2 8.0 0.00 0.00 0.00 75 1013.4
20260505035208 16 216 3.2 12.9 0.00 0.00 0.00 74 1013.2
20260505034704 16 198 4.8 9.7 0.00 0.00 0.00 74 1013.0
20260505034202 16 147 3.2 11.3 0.00 0.00 0.00 74 1013.2
20260505033658 16 184 9.7 11.3 0.00 0.00 0.00 73 1013.1
20260505033156 16 198 6.4 9.7 0.00 0.00 0.00 72 1013.2
20260505032654 17 161 3.2 4.8 0.00 0.00 0.00 71 1012.8
20260505032155 17 214 6.4 9.7 0.00 0.00 0.00 71 1012.9
20260505031652 17 139 6.4 9.7 0.00 0.00 0.00 70 1012.8
20260505031149 17 201 1.6 8.0 0.00 0.00 0.00 70 1012.8
20260505030646 17 159 4.8 4.8 0.00 0.00 0.00 70 1012.7
20260505030141 17 123 3.2 4.8 0.00 0.00 0.00 70 1012.7
20260505025637 17 162 6.4 8.0 0.00 0.00 0.00 70 1012.7
20260505025136 17 187 4.8 8.0 0.00 0.00 0.00 69 1012.5
20260505024633 18 206 4.8 9.7 0.00 0.00 0.00 68 1012.7
20260505024131 19 189 8.0 11.3 0.00 0.00 0.00 66 1012.5
20260505023628 20 170 4.8 8.0 0.00 0.00 0.00 64 1012.5
20260505023125 20 192 4.8 8.0 0.00 0.00 0.00 62 1012.3
20260505022623 20 187 3.2 8.0 0.00 0.00 0.00 61 1012.5
20260505022119 20 190 4.8 8.0 0.00 0.00 0.00 61 1012.5
20260505021616 20 193 4.8 8.0 0.00 0.00 0.00 60 1012.2
20260505021113 21 157 4.8 11.3 0.00 0.00 0.00 58 1012.3
20260505020608 21 211 4.8 4.8 0.00 0.00 0.00 57 1012.3
20260505020105 22 194 1.6 4.8 0.00 0.00 0.00 56 1012.3
20260505015602 22 182 3.2 8.0 0.00 0.00 0.00 57 1012.2
20260505015059 22 201 9.7 11.3 0.00 0.00 0.00 56 1012.2
20260505014555 22 205 3.2 4.8 0.00 0.00 0.00 57 1012.1
20260505014052 22 248 8.0 9.7 0.00 0.00 0.00 56 1012.2
20260505013549 22 201 3.2 3.2 0.00 0.00 0.00 57 1012.4
20260505013047 22 184 3.2 8.0 0.00 0.00 0.00 56 1012.5
20260505012545 23 207 3.2 3.2 0.00 0.00 0.00 56 1012.1
20260505012042 23 204 6.4 11.3 0.00 0.00 0.00 54 1012.1
20260505011537 23 127 4.8 11.3 0.00 0.00 0.00 53 1012.3
20260505011035 23 180 11.3 12.9 0.00 0.00 0.00 52 1012.3
20260505010530 23 173 8.0 11.3 0.00 0.00 0.00 52 1012.2
20260505010027 24 204 6.4 11.3 0.00 0.00 0.00 51 1012.3
20260505005523 25 220 6.4 8.0 0.00 0.00 0.00 51 1012.4
20260505005021 25 178 3.2 3.2 0.00 0.00 0.00 51 1012.3
20260505004518 25 191 3.2 4.8 0.00 0.00 0.00 50 1012.3
20260505004014 24 180 4.8 9.7 0.00 0.00 0.00 51 1012.2
20260505003512 24 153 6.4 9.7 0.00 0.00 0.00 51 1012.3
20260505003009 25 138 9.7 12.9 0.00 0.00 0.00 50 1012.3
20260505002504 25 184 6.4 9.7 0.00 0.00 0.00 50 1012.3
20260505002003 25 193 4.8 9.7 0.00 0.00 0.00 49 1012.3
20260505001500 25 201 4.8 8.0 0.00 0.00 0.00 50 1012.3
20260505000956 25 214 3.2 8.0 0.00 0.00 0.00 51 1012.4
20260505000455 24 209 4.8 8.0 0.00 0.00 0.00 52 1012.4
20260504235951 24 156 8.0 9.7 0.00 0.00 0.00 51 1012.4
20260504235448 24 191 8.0 11.3 0.00 0.00 0.00 51 1012.5
20260504234945 24 186 6.4 9.7 0.00 0.00 0.00 51 1012.4
20260504234442 24 152 6.4 9.7 0.00 0.00 0.00 51 1012.5
20260504233938 24 137 6.4 11.3 0.00 0.00 0.00 52 1012.3
20260504233434 24 161 3.2 8.0 0.00 0.00 0.00 52 1012.4
20260504232931 23 225 4.8 11.3 0.00 0.00 0.00 51 1012.5
20260504232429 23 179 4.8 11.3 0.00 0.00 0.00 51 1012.5
20260504231926 23 137 6.4 9.7 0.00 0.00 0.00 51 1012.4
20260504231421 24 141 8.0 12.9 0.00 0.00 0.00 51 1012.4
20260504230917 24 186 11.3 17.7 0.00 0.00 0.00 51 1012.7
20260504230415 24 191 6.4 14.5 0.00 0.00 0.00 50 1012.6
20260504225914 23 203 4.8 9.7 0.00 0.00 0.00 51 1012.7
20260504225410 25 239 6.4 14.5 0.00 0.00 0.00 49 1012.8
20260504224908 24 229 4.8 8.0 0.00 0.00 0.00 50 1013.0
20260504224404 24 163 3.2 8.0 0.00 0.00 0.00 51 1012.7
20260504223901 24 183 8.0 11.3 0.00 0.00 0.00 50 1013.0
20260504223357 24 179 6.4 11.3 0.00 0.00 0.00 50 1013.0
20260504222853 25 172 8.0 11.3 0.00 0.00 0.00 47 1013.0
20260504222350 25 195 3.2 4.8 0.00 0.00 0.00 48 1013.0
20260504221849 25 189 4.8 8.0 0.00 0.00 0.00 47 1013.1
20260504221345 25 206 4.8 11.3 0.00 0.00 0.00 47 1013.1
20260504220842 24 179 4.8 4.8 0.00 0.00 0.00 47 1013.3
20260504220339 23 182 6.4 9.7 0.00 0.00 0.00 48 1013.2
20260504215836 24 211 8.0 9.7 0.00 0.00 0.00 46 1013.3
20260504215332 23 250 4.8 8.0 0.00 0.00 0.00 47 1013.3
20260504214828 23 155 3.2 9.7 0.00 0.00 0.00 47 1013.4
20260504214326 23 205 9.7 14.5 0.00 0.00 0.00 47 1013.3
20260504213822 23 226 6.4 8.0 0.00 0.00 0.00 51 1013.4
20260504213318 23 248 6.4 8.0 0.00 0.00 0.00 50 1013.3
20260504212816 23 228 4.8 9.7 0.00 0.00 0.00 50 1013.6
20260504212312 23 187 6.4 12.9 0.00 0.00 0.00 50 1013.3
20260504211810 23 167 6.4 8.0 0.00 0.00 0.00 51 1013.5
20260504211305 23 196 3.2 11.3 0.00 0.00 0.00 52 1013.6
20260504210803 22 170 6.4 8.0 0.00 0.00 0.00 51 1013.8
20260504210300 22 185 8.0 11.3 0.00 0.00 0.00 53 1013.7
20260504205757 22 225 4.8 12.9 0.00 0.00 0.00 55 1013.5
20260504205255 22 220 4.8 9.7 0.00 0.00 0.00 54 1013.6
20260504204753 22 226 8.0 12.9 0.00 0.00 0.00 54 1013.7
20260504204251 22 222 8.0 16.1 0.00 0.00 0.00 53 1013.7
20260504203750 22 227 4.8 4.8 0.00 0.00 0.00 56 1013.8
20260504203247 21 184 6.4 12.9 0.00 0.00 0.00 55 1013.6
20260504202747 21 185 11.3 12.9 0.00 0.00 0.00 55 1013.8
20260504202244 21 186 4.8 11.3 0.00 0.00 0.00 55 1013.7
20260504201741 21 185 8.0 16.1 0.00 0.00 0.00 55 1013.5
20260504201238 21 177 3.2 17.7 0.00 0.00 0.00 55 1013.7
20260504200736 21 215 4.8 9.7 0.00 0.00 0.00 55 1013.7
20260504200231 21 191 4.8 9.7 0.00 0.00 0.00 56 1013.8
20260504195728 21 171 4.8 11.3 0.00 0.00 0.00 56 1013.8
20260504195224 21 174 4.8 12.9 0.00 0.00 0.00 56 1013.9
20260504194722 20 242 4.8 14.5 0.00 0.00 0.00 57 1014.0
20260504194218 20 201 8.0 12.9 0.00 0.00 0.00 57 1013.8
20260504193714 20 202 8.0 14.5 0.00 0.00 0.00 57 1013.9
20260504193212 20 200 11.3 16.1 0.00 0.00 0.00 56 1013.9
20260504192710 20 208 11.3 14.5 0.00 0.00 0.00 56 1014.1
20260504192208 20 176 8.0 14.5 0.00 0.00 0.00 56 1014.0
20260504191706 20 193 9.7 14.5 0.00 0.00 0.00 56 1014.0
20260504191202 20 170 8.0 12.9 0.00 0.00 0.00 58 1014.1
20260504190658 20 162 4.8 16.1 0.00 0.00 0.00 58 1014.2
20260504190154 20 171 12.9 14.5 0.00 0.00 0.00 57 1014.0
20260504185651 20 229 4.8 8.0 0.00 0.00 0.00 58 1014.2
20260504185148 20 202 9.7 11.3 0.00 0.00 0.00 59 1014.1
20260504184644 19 194 8.0 14.5 0.00 0.00 0.00 59 1014.2
20260504184139 18 187 9.7 14.5 0.00 0.00 0.00 61 1014.1
20260504183636 18 191 8.0 14.5 0.00 0.00 0.00 63 1014.2
20260504183133 18 208 6.4 11.3 0.00 0.00 0.00 62 1014.3
20260504182631 18 249 9.7 12.9 0.00 0.00 0.00 62 1014.3
20260504182128 18 228 8.0 11.3 0.00 0.00 0.00 63 1014.0
20260504181626 18 215 4.8 11.3 0.00 0.00 0.00 64 1014.4
20260504181123 18 193 8.0 9.7 0.00 0.00 0.00 63 1014.3
20260504180622 18 188 3.2 8.0 0.00 0.00 0.00 65 1014.5
20260504180121 18 237 8.0 12.9 0.00 0.00 0.00 63 1014.3
20260504175617 18 243 6.4 9.7 0.00 0.00 0.00 64 1014.5
20260504175114 18 174 3.2 11.3 0.00 0.00 0.00 64 1014.4
20260504174612 18 161 3.2 9.7 0.00 0.00 0.00 65 1014.4
20260504174108 17 191 6.4 11.3 0.00 0.00 0.00 67 1014.3
20260504173605 17 168 8.0 9.7 0.00 0.00 0.00 68 1014.2
20260504173103 17 204 8.0 12.9 0.00 0.00 0.00 66 1014.4
20260504172559 17 198 11.3 12.9 0.00 0.00 0.00 67 1014.3
20260504172056 17 211 6.4 12.9 0.00 0.00 0.00 66 1014.3
20260504171552 17 186 8.0 12.9 0.00 0.00 0.00 66 1014.3
20260504171050 17 203 6.4 12.9 0.00 0.00 0.00 67 1014.4
20260504170545 17 211 8.0 12.9 0.00 0.00 0.00 66 1014.2